Preview of NWS' New Version of Forecast
This preview is not operational and should not be used for support decisions.

Regional Weather Roundup (RWR)

Issued by National Weather Service (NWS)

                            
000
ASUS45 KABQ 192301
RWRNM 
NEW MEXICO REGIONAL WEATHER ROUNDUP
NATIONAL WEATHER SERVICE ALBUQUERQUE NM
500 PM MDT MON AUG 19 2019

NOTE: "FAIR" MEANS FEW OR NO CLOUDS BELOW 12,000 FEET AGL WITH NO
       SIGNIFICANT WEATHER OR OBSTRUCTIONS TO VISION.

      THIS PRODUCT IS RELEASED AS TWO VERSIONS.  ONE VERSION NEAR
      THE TOP OF THE HOUR CONTAINING PRELIMINARY DATA FROM ALBUQUERQUE
      AND OTHER STATIONS.  A FINAL VERSION WITH ADDITIONAL DATA IS 
      ISSUED ABOUT 10 MINUTES AFTER THE HOUR.
 
NMZ501-503-504-510>518-200000-
NORTHWEST PLATEAU/NORTHCENTRAL MOUNTAINS
  
CITY           SKY/WX    TMP DP  RH WIND       PRES   REMARKS
FARMINGTON     FAIR      93  25   8 W8        30.12F                  
LOS ALAMOS       N/A     85  29  13 S8        30.27S                  
SANTA FE       FAIR      91  34  13 VRB3      30.18F                  
TAOS             N/A     89  30  12 SW6       30.25F                  
ANGEL FIRE     PTSUNNY   77  34  20 S10       30.37S                  

$$
NMZ402-403-502-505>509-200000-
WESTCENTRAL MOUNTAINS/SOUTHWEST MOUNTAINS
  
CITY           SKY/WX    TMP DP  RH WIND       PRES   REMARKS
GALLUP         FAIR      91  23   8 S9G17     30.21F                  
GRANTS         FAIR      87  29  12 NW8       30.20F                  
SILVER CITY    FAIR      93  35  13 N3        30.12S                  

$$
NMZ407-409-411-412-200000-
SOUTHERN DESERTS
  
CITY           SKY/WX    TMP DP  RH WIND       PRES   REMARKS
DEMING         FAIR      98  36  11 S6        30.03F                  
LAS CRUCES     FAIR      98  40  13 CALM      30.06F                  
HOLLOMAN AFB   FAIR      94  50  22 NE10      30.06F                  
ALAMOGORDO     FAIR      93  46  20 N5        30.06F                  
T OR C         FAIR      94  40  15 E15       30.07F                  

$$
NMZ519>523-200000-
CENTRAL VALLEYS/CENTRAL HIGHLANDS
  
CITY           SKY/WX    TMP DP  RH WIND       PRES   REMARKS
ALBUQUERQUE    FAIR      94  36  13 SW8       30.10F                  
DOUBLE EAGLE   MOSUNNY   93  37  14 VRB5      30.15F                  
CLINES CORNERS FAIR      84  39  20 S21       30.27S                  
BELEN          FAIR      96  32  10 S5        30.10S                  
SOCORRO        FAIR      96  36  12 SE12      30.08F                  

$$
NMZ524>526-539-540-200000-
SOUTHCENTRAL MOUNTAINS
  
CITY           SKY/WX    TMP DP  RH WIND       PRES   REMARKS
RUIDOSO        LGT RAIN  68  54  60 SW13      30.32F                  

$$
NMZ527>531-200000-
NORTHEAST HIGHLANDS/NORTHEAST PLAINS
  
CITY           SKY/WX    TMP DP  RH WIND       PRES   REMARKS
LAS VEGAS      FAIR      88  35  15 S15G28    30.23F                  
RATON          FAIR      92  39  15 S16       30.15S                  
CLAYTON        FAIR      96  43  16 S20       30.07S                  

$$
NMZ532>537-200000-
EASTCENTRAL PLAINS
  
CITY           SKY/WX    TMP DP  RH WIND       PRES   REMARKS
TUCUMCARI      FAIR      96  48  19 SW12      30.01F                  
CANNON AFB     CLOUDY    91  50  24 SW6       30.10S                  
CLOVIS AIRPORT FAIR      93  50  23 SW10      30.09R                  

$$
NMZ028-029-538-200000-
SOUTHEAST PLAINS
  
CITY           SKY/WX    TMP DP  RH WIND       PRES   REMARKS
ROSWELL        FAIR      99  48  17 NE8       30.01S HX  95           
ARTESIA        FAIR     100  54  20 E14       29.99F HX  98           
CARLSBAD       FAIR     102  50  17 E9G20     29.93F HX  99           
HOBBS          MOSUNNY   99  39  12 SE12G18   30.01S                  


$$